World > North America > United States > Florida

Boca Raton, Florida Regional Weather

Lat: 26.36N, Lon: 80.1W
Wx Zone: FLZ168
Warning FLW WEATHER ALERT - (More Info. Click Here) Warning
Feedback

Boca Raton, FL Regional Weather

Expires:201908191400;;881690
ASUS42 KTBW 191317
RWRFL 
FLORIDA REGIONAL WEATHER ROUNDUP
NATIONAL WEATHER SERVICE TAMPA BAY RUSKIN FL
900 AM EDT MON AUG 19 2019

NOTE: "FAIR" INDICATES FEW OR NO CLOUDS BELOW 12,000 FEET WITH NO
SIGNIFICANT WEATHER AND/OR OBSTRUCTIONS TO VISIBILITY.


FLZ067-068-071>074-168-172>174-191400-
SOUTHEAST FLORIDA 
  
CITY           SKY/WX    TMP DP  RH WIND       PRES   REMARKS
W PALM BEACH   FAIR      86  74  67 E10       30.08R                  
BOCA RATON     MOSUNNY   86  77  74 CALM      30.08R HX  97           
FT LAUDER-EXEC FAIR      86  74  67 E10       30.07R                  
FT LAUDERDALE  FAIR      85  75  72 E12       30.06R                  
POMPANO BEACH  LGT RAIN  84  72  67 E5        30.07R                  
PEMBROKE PINES FAIR      84  75  74 N3        30.08R                  
OPA LOCKA      FAIR      85  75  72 E8        30.07R                  
MIAMI          PTSUNNY   86  73  65 E9        30.07R                  
WEST KENDALL   FAIR      86  76  71 E8        30.06R HX  96           
HOMESTEAD      FAIR      87  76  70 NE10      30.05R HX  96           

STATION/POSITION SKY/WX   TEMP    WIND        PRES    WAVE   SWELL
                          AIR SEA DIR/SP/G            HT/PER HT/PER
                          (F)     (DEG/KT/KT) (MB)    (FT/S) (FT/S)
VIRGINIA KEY               86 89   80/  8/ 12 1017.6
LAKE WORTH                         80/  9/ 11   N/A
FOWEY ROCKS                85 86   80/ 15/ 16 1018.2R
SETTLEMENT POINT           85     110/ 12/ 14 1018.8R

$$

  

SKY/WX - Weather  TMP - Temperature  DP - Dew Point  RH - Relative Humidity
WIND - Wind Direction/Speed PRES - Barometric Pressure VSB - Visibility
WCI - Wind Chill Index E13G22 Wind - East Wind 13 mph/Gusts of 22 mph